Home > Weather > Hohhot > Past weeks

Flag for China Weather for the Past 2 Weeks in Hohhot, Inner Mongolia, China

Now
18 °F

Clear.


Feels Like: 6 °F
Forecast: 19 / 46 °F
Wind: 10 mph from Northeast

Location: Hohhot Airport

Current Time: Feb 10, 2016 at 3:05:06 AM

Latest Report: Feb 10, 2016 at 2:00 AM


Visibility: 10 mi

Pressure: 29.89 "Hg (26.10 "Hg at 1053m altitude)

Humidity: 79%

Dew point: 12 °F

Location of HohhotLocation

Historic Weather in Hohhot — Graph

°F

Hohhot Temperature Yesterday

Maximum temperature yesterday: 43 °F (at 4:00 PM)
Minimum temperature yesterday: 12 °F (at 6:00 AM)
Average temperature yesterday: 27 °F

High & Low Weather Summary for the Past Weeks

 TemperatureHumidityPressure
High43 °F (Feb 9, 4:00 PM)79% (Feb 9, 5:00 AM)30.57 "Hg (Feb 9, 5:00 AM)
Low-13 °F (Jan 26, 4:00 AM)29% (Feb 9, 4:00 PM)29.89 "Hg (Feb 9, 10:00 PM)
Average12 °F55%30.27 "Hg
* Reported Jan 26 2:00 AM — Feb 10 2:00 AM, Hohhot, Weather by CustomWeather, © 2016

Note: Actual official high and low records may vary slightly from our data, if they occured in-between our weather recording intervals... More about our weather records

Advertising

Hohhot Weather History for the Previous 24 Hours

 ConditionsComfort  
Time TempWeatherWind HumidityBarometerVisibility
2:00 AM
Wed, Feb 10
18 °FClear.10 mph79%29.89 "Hg10 mi
1:00 AM19 °FPassing clouds.3 mph79%29.89 "HgN/A
12:00 AM25 °FClear.6 mph69%29.92 "Hg10 mi
11:00 PM
Tue, Feb 9
25 °FClear.6 mph69%29.92 "Hg10 mi
10:00 PM28 °FPassing clouds.6 mph64%29.89 "HgN/A
9:00 PM27 °FPassing clouds.6 mph74%29.92 "HgN/A
8:00 PM30 °FPassing clouds.3 mph59%29.92 "HgN/A
7:00 PM32 °FPassing clouds.6 mph55%29.92 "HgN/A
6:00 PM34 °FClear.3 mph48%29.92 "Hg10 mi
5:00 PM43 °FSunny.1 mph31%29.92 "Hg10 mi
4:00 PM43 °FPassing clouds.3 mph29%29.92 "HgN/A
3:00 PM41 °FSunny.1 mph33%29.95 "Hg10 mi
2:00 PM39 °FSunny.1 mph39%29.98 "Hg10 mi
1:00 PM37 °FPassing clouds.3 mph38%30.01 "HgN/A
12:00 PM36 °FPassing clouds.3 mph41%30.04 "HgN/A
11:00 AM34 °FSunny.1 mph44%30.07 "Hg10 mi
10:00 AM28 °FSunny.3 mph55%30.07 "Hg10 mi
9:00 AM21 °FSunny.3 mph68%30.07 "Hg10 mi
8:00 AM14 °FSunny.6 mph73%30.07 "Hg10 mi
7:00 AM12 °FClear.6 mph79%30.07 "Hg10 mi
6:00 AM12 °FClear.6 mph79%30.07 "Hg10 mi
5:00 AM14 °FPassing clouds.6 mph79%30.07 "HgN/A
4:00 AM16 °FClear.3 mph73%30.07 "Hg10 mi
3:00 AM16 °FClear.1 mph73%30.07 "Hg10 mi
Weather by CustomWeather, © 2016

See weather overviewHow to use our weather pages